Погода в Агинском

Россия / Забайкальский край     51°06′13″N   114°32′16″E
темп.,
°C
ветер,
м/с
пор.,
м/с
влажн.,
%
обл.,
%
осадки,
мм/ч
давл.,
гПа
погр.,
м
22 января, пт
пт2200:00−19зюз12830 0.0 102620
03:00−18зюз118331 0.0 102620
06:00−19зюз018262 0.0 102420
09:00−18вюв118181 0.0 102420
12:00−15юв237598 0.0 1023173
15:00−13вюв226271 0.0 1020308
18:00−17вюв12790 0.0 102020
21:00−19юв12930 0.0 102120
23 января, сб
сб2300:00−19ююв229350 0.0 102120
03:00−19ююв239338 0.0 102023
06:00−19ююв239365 0.0 101923
09:00−19ююв128633 0.0 101920
12:00−14ююв117120 0.0 101836
15:00−9ююв126553 0.0 101774
18:00−12юв1170100 0.0 101921
21:00−13ююв117475 0.0 102121
24 января, вс
вс2400:00−14ююв017897 0.0 102221
03:00−14сз018098 0.0 102321
06:00−14сз1283100 0.0 102420
09:00−14сз1185100 0.0 102620
12:00−12ссв1185100 0.0 102676
15:00−11св2288100 0.0 1025243
18:00−14св1296100 0.1 102623
21:00−15св3696100 0.2 1027249
25 января, пн
пн2500:00−16всв2596100 0.3 1027204
03:00−16всв2497100 0.3 1025210
06:00−17всв4796100 0.2 1022292
09:00−17св4796100 1.4 1019339
12:00−18ссв71096100 2.1 1017458
15:00−19с6894100 2.9 1015670
18:00−20ссз61095100 0.5 1016703
21:00−21ссз51094100 0.6 1017598
26 января, вт
вт2600:00−22сз3898100 0.1 1018257
03:00−22сз61194100 0.2 1019685
06:00−22сз71391100 0.1 10201026
09:00−21сз81489100 0.1 1021995
12:00−19сз101387100 0.1 10201177
15:00−19сз91382100 0.1 1020835
18:00−20зсз81487100 0.0 1021709
21:00−22зсз81685100 0.0 1023549